Home   Weather   Vantaa   Past weeks

Flag for Finland Past Weather in Vantaa, Finland — Yesterday and Last 2 Weeks

Now
18 °F

Clear.


Feels Like: 6 °F
Forecast: 16 / 19 °F
Wind: 9 mph from Northwest

Location: Helsinki-Vantaa

Current Time: Dec 10, 2016 at 10:50:25 pm

Latest Report: Dec 10, 2016 at 10:20 pm


Visibility: 10 mi

Pressure: 29.80 "Hg

Humidity: 86%

Dew Point: 14 °F

Location of VantaaLocation

Past Weather in Vantaa — Graph

°F

Vantaa Temperature Yesterday

Maximum temperature yesterday: 36 °F (at 1:50 am)
Minimum temperature yesterday: 28 °F (at 10:20 pm)
Average temperature yesterday: 34 °F

High & Low Weather Summary for the Past Weeks

 TemperatureHumidityPressure
High43 °F (Nov 26, 12:20 pm)100% (Nov 26, 12:20 am)30.33 "Hg (Nov 26, 12:20 am)
Low9 °F (Dec 6, 11:20 pm)64% (Dec 5, 7:50 pm)29.03 "Hg (Nov 26, 7:50 pm)
Average28 °F86%29.67 "Hg
* Reported Nov 25 9:20 pm — Dec 10 9:20 pm, Vantaa, Weather by CustomWeather, © 2016

Note: Actual official high and low records may vary slightly from our data, if they occured in-between our weather recording intervals... More about our weather records

Advertising

Vantaa Weather History for the Previous 24 Hours

Scroll right to see more
 ConditionsComfort  
Time TempWeatherWind HumidityBarometerVisibility
9:20 pm
Sat, Dec 10
18 °FClear.8 mph86%29.80 "Hg10 mi
8:50 pm18 °FClear.7 mph86%29.77 "Hg10 mi
8:20 pm18 °FClear.7 mph86%29.77 "Hg10 mi
7:50 pm18 °FClear.7 mph86%29.77 "Hg10 mi
7:20 pm18 °FClear.9 mph86%29.77 "Hg10 mi
6:50 pm19 °FClear.9 mph86%29.77 "Hg10 mi
6:20 pm19 °FClear.9 mph86%29.77 "Hg10 mi
5:50 pm19 °FClear.8 mph86%29.77 "Hg10 mi
5:20 pm19 °FClear.7 mph86%29.77 "Hg10 mi
4:50 pm19 °FClear.8 mph86%29.77 "Hg10 mi
4:20 pm21 °FClear.7 mph80%29.77 "Hg10 mi
3:50 pm21 °FClear.10 mph80%29.77 "Hg10 mi
3:20 pm21 °FClear.9 mph80%29.77 "Hg10 mi
2:50 pm21 °FSunny.8 mph80%29.77 "Hg10 mi
2:20 pm21 °FSunny.8 mph86%29.77 "Hg10 mi
1:50 pm21 °FSunny.9 mph86%29.74 "Hg10 mi
1:20 pm21 °FPassing clouds.9 mph86%29.74 "HgN/A
12:50 pm21 °FSunny.9 mph86%29.74 "Hg10 mi
12:20 pm21 °FSunny.9 mph86%29.74 "Hg10 mi
11:50 am21 °FSunny.8 mph86%29.74 "Hg10 mi
11:20 am21 °FSunny.10 mph86%29.74 "Hg10 mi
10:50 am21 °FSunny.9 mph86%29.74 "Hg10 mi
10:20 am21 °FSunny.10 mph86%29.74 "Hg10 mi
9:50 am21 °FSunny.10 mph86%29.74 "Hg10 mi
9:20 am21 °FSunny.9 mph80%29.74 "Hg10 mi
8:50 am21 °FClear.9 mph86%29.74 "Hg10 mi
8:20 am21 °FClear.8 mph86%29.71 "Hg10 mi
7:50 am21 °FClear.10 mph86%29.71 "Hg10 mi
7:20 am21 °FClear.10 mph86%29.71 "Hg10 mi
6:50 am21 °FClear.9 mph86%29.71 "Hg10 mi
6:20 am23 °FClear.10 mph80%29.71 "Hg10 mi
5:50 am23 °FClear.8 mph80%29.71 "Hg10 mi
5:20 am23 °FClear.9 mph80%29.71 "Hg10 mi
4:50 am25 °FClear.12 mph74%29.71 "Hg10 mi
4:20 am25 °FClear.13 mph74%29.71 "Hg10 mi
3:50 am25 °FClear.13 mph74%29.71 "Hg10 mi
3:20 am25 °FClear.13 mph80%29.71 "Hg10 mi
2:50 am27 °FClear.10 mph74%29.71 "Hg10 mi
2:20 am27 °FClear.10 mph74%29.71 "Hg10 mi
1:50 am27 °FClear.12 mph74%29.68 "Hg10 mi
1:20 am27 °FClear.10 mph80%29.68 "Hg10 mi
12:50 am27 °FClear.10 mph80%29.68 "Hg10 mi
12:20 am27 °FClear.10 mph80%29.68 "Hg10 mi
11:50 pm
Fri, Dec 9
28 °FClear.10 mph74%29.65 "Hg10 mi
11:20 pm28 °FClear.10 mph74%29.65 "Hg10 mi
10:50 pm28 °FClear.10 mph74%29.65 "Hg10 mi
10:20 pm28 °FClear.10 mph80%29.65 "Hg10 mi
Weather by CustomWeather, © 2016

See weather overviewHow to use our weather pages